Location: Columbia
(38.9520°N, 92.3340°W)
Time: 22:49:52
(UTC-05:00)

Daily predictions for brighter satellites

Satellite Brightness Start Highest point End
(mag) Time Altitude Azimuth Time Altitude Azimuth Time Altitude Azimuth
ATLAS CENTAUR Rocket 4.5 19:59:14 10° WSW 20:05:22 49° SSE 20:42:48 10° ESE
ATLAS CENTAUR Rocket 4.5 19:59:15 10° WSW 20:05:22 49° SSE 20:42:48 10° ESE
ATLAS CENTAUR Rocket 4.5 19:59:14 10° WSW 20:05:22 49° SSE 20:42:49 10° ESE
ATLAS CENTAUR Rocket 4.5 19:59:15 10° WSW 20:05:22 49° SSE 20:42:49 10° ESE
ATLAS CENTAUR Rocket 4.5 19:59:14 10° WSW 20:05:23 49° SSE 20:42:48 10° ESE
ATLAS CENTAUR Rocket 4.5 19:59:15 10° WSW 20:05:23 49° SSE 20:42:48 10° ESE
Cosmos 1743 Rocket 3.7 21:04:03 10° S 21:08:31 84° W 21:13:00 10° N
Meteor 1-21 Rocket 4.2 21:03:48 10° S 21:09:19 74° E 21:14:50 10° NNE
Cosmos 1500 Rocket 3.5 21:09:48 10° S 21:14:09 75° E 21:18:34 10° N
S3M 4.0 21:10:35 10° N 21:16:44 88° W 21:22:52 10° S
Cosmos 2228 Rocket 3.7 21:12:26 10° NNW 21:16:53 62° W 21:21:20 10° S
Cosmos 1437 3.8 21:15:55 10° SSE 21:18:47 28° E 21:21:40 10° NNE
Cosmos 1726 4.4 21:19:55 10° NE 21:21:14 11° ENE 21:22:32 10° E
ATLAS 2AS CENTAUR R/B 4.5 21:19:40 10° ESE 21:21:36 11° E 21:23:35 10° E
Envisat 3.3 21:20:12 10° SSE 21:25:07 54° ENE 21:30:05 10° N
ERS-1 Rocket 3.0 21:21:09 10° SSE 21:26:11 87° W 21:31:15 10° NNW
Cosmos 2219 3.6 21:22:10 10° S 21:27:36 45° ESE 21:33:02 10° NE
Delta 2 Rocket 3.3 21:25:01 10° WSW 21:28:34 46° S 21:31:52 10° E
Cosmos 1441 Rocket 4.1 21:27:47 10° SSW 21:31:28 52° W 21:35:09 10° N
deb Chang Zheng 4 3.5 21:27:32 10° NNE 21:31:54 84° ESE 21:36:14 10° SSW
BREEZE M DEB (TANK) 3.6 21:31:42 10° WSW 21:33:09 16° SSW 21:35:15 10° SSE
Cosmos 2237 Rocket 4.3 21:32:31 10° NNE 21:35:02 13° NE 21:37:31 10° ENE
Cosmos 2322 3.8 21:32:05 10° NNW 21:37:48 73° ENE 21:43:02 12° SSE
Cosmos 2322 Rocket 3.5 21:33:07 10° NW 21:38:14 37° WSW 21:43:20 10° S
Cosmos 2112 Rocket 4.3 21:33:47 10° N 21:38:56 54° ENE 21:43:24 14° SE
Cosmos 2151 2.9 21:36:30 10° S 21:40:38 64° E 21:44:48 10° NNE
Cosmos 1515 Rocket 4.4 21:39:27 10° NNW 21:43:45 52° W 21:48:01 10° S
NOSS 3-1 (C) 3.5 21:39:16 10° SSW 21:44:53 53° ESE 21:51:01 10° NE
Terra 3.9 21:44:15 10° E 21:46:10 12° ENE 21:48:03 10° NE
Nimbus 7 Rocket 4.4 21:41:00 10° NNE 21:46:53 85° ESE 21:52:45 10° SSW
Cosmos 2360 Rocket 2.2 21:41:38 10° NNW 21:47:19 89° ENE 21:52:21 13° SSE
Cosmos 883 Rocket 4.5 21:41:16 10° N 21:47:30 81° E 21:53:38 10° S
Aureole 3 4.4 21:42:08 10° S 21:48:52 69° E 21:54:15 10° NNE
MetOp-B 4.3 21:44:55 13° SSE 21:49:31 57° ENE 21:54:47 10° N
SL-16 R/B 3.7 21:44:46 10° NW 21:49:45 32° WSW 21:54:42 10° SSW
Sich 1 4.0 21:48:46 16° SE 21:51:27 30° E 21:55:17 10° NNE
CZ-4 SHROUD 3.2 21:51:29 19° SSE 21:53:37 69° ENE 21:56:44 10° N
DELTA 2 R/B (1) 3.7 21:48:32 10° W 21:54:00 63° SSW 21:58:07 18° ESE
USA 245 3.7 21:53:37 20° E 21:54:09 21° ENE 21:56:02 10° NNE
SWAS 4.5 21:50:41 10° NNW 21:55:00 72° ENE 21:58:00 19° SSE
Cosmos 1908 3.9 21:51:14 10° NNW 21:55:03 54° W 21:58:52 10° S
Cosmos 1633 Rocket 4.0 21:52:39 18° SE 21:55:07 31° E 21:58:58 10° NNE
Cosmos 2058 3.0 21:52:03 12° S 21:55:43 56° E 21:59:44 10° NNE
OAO 2 Rocket 4.0 21:54:21 10° SW 21:59:13 37° SSE 22:03:20 14° E
Cosmos 1151 Rocket 3.5 21:56:23 10° NNW 22:00:38 58° W 22:04:53 10° S
Cosmos 1626 4.5 22:01:03 10° E 22:01:03 10° E 22:01:24 10° ENE
Cosmos 1674 3.9 21:58:15 10° SSW 22:01:54 42° W 22:05:36 10° N
Cosmos 405 4.0 21:58:56 10° NNW 22:02:25 45° W 22:05:50 10° SSW
SL-08 RB Rocket 4.4 22:06:51 22° SE 22:09:08 38° ENE 22:13:19 10° N
CZ-4 R/B 4.2 22:05:37 10° NNE 22:10:21 46° E 22:13:19 21° SSE
Cosmos 1805 Rocket 3.5 22:06:22 12° S 22:10:32 82° E 22:14:59 10° N
H-2A R/B 3.4 22:08:02 18° ESE 22:10:54 27° ENE 22:15:24 10° N
CZ-4B R/B 3.5 22:06:54 10° NNE 22:12:11 70° ESE 22:17:02 12° S
Cosmos 2227 Rocket 3.2 22:11:30 22° SE 22:13:28 27° ESE 22:18:08 10° NE
Meteor 1-11 4.2 22:07:48 10° S 22:13:32 72° E 22:19:15 10° NNE
YAOGAN 6 2.5 22:12:45 26° SSE 22:14:43 84° ENE 22:18:21 10° N
Tiangong 1 0.8 22:11:47 10° WSW 22:14:53 80° SSE 22:17:12 16° ENE
Cosmos 1680 Rocket 4.0 22:10:16 10° NNW 22:15:25 58° WSW 22:19:31 16° S
Cosmos 1300 2.6 22:12:09 10° N 22:16:00 73° E 22:17:53 28° SSE
Cosmos 2315 Rocket 4.0 22:10:33 10° N 22:16:46 84° W 22:21:57 15° S
SPOT 1/Viking Rocket 3.5 22:19:48 23° SSE 22:23:03 82° ENE 22:28:14 10° NNW
H-2A R/B 4.1 22:23:18 10° SSW 22:27:04 26° W 22:30:50 10° NW
Cosmos 1898 Rocket 3.4 22:21:56 10° SSW 22:27:06 79° ESE 22:32:19 10° NNE
Cosmos 2333 Rocket 3.1 22:23:09 10° N 22:28:26 36° ENE 22:31:18 23° ESE
SL-16 R/B 4.3 22:25:22 10° NNE 22:28:38 15° NE 22:31:53 10° E
DELTA 2 R/B(2) 3.6 22:27:21 10° W 22:29:09 72° N 22:29:22 64° NE
Cosmos 1707 Rocket 3.6 22:26:12 10° N 22:30:34 77° W 22:32:56 26° S
Cosmos 858 Rocket 4.4 22:27:45 13° SSW 22:32:29 80° ESE 22:37:41 10° NNE
Cosmos 1666 Rocket 3.6 22:29:56 18° SSW 22:33:06 77° W 22:37:32 10° N
Cosmos 220 Rocket 4.1 22:31:40 31° S 22:33:36 58° ESE 22:37:57 10° NNE
Cosmos 2150 Rocket 4.1 22:29:06 10° SSW 22:34:32 87° WNW 22:40:03 10° NNE
SPOT 5 4.0 22:32:35 13° SSW 22:36:11 36° W 22:40:36 10° NNW
Meteor 2-11 Rocket 4.5 22:30:36 10° N 22:36:46 82° W 22:40:47 23° S
Cosmos 1455 3.3 22:35:12 10° NNE 22:38:31 28° ENE 22:38:49 27° E
Nadezhda 1 Rocket 4.3 22:33:44 10° N 22:39:38 49° E 22:42:17 31° SE
COSMOS 2428 2.8 22:34:37 10° NNW 22:40:17 70° WSW 22:43:19 28° S
Cosmos 2297 Rocket 2.9 22:39:29 30° ESE 22:40:26 31° ESE 22:45:22 10° NE
ARGOS 3.2 22:41:02 28° S 22:44:01 78° WSW 22:49:27 10° NNW
Cosmos 1470 Rocket 3.6 22:45:42 44° SE 22:46:41 56° E 22:50:55 10° NNE
Cosmos 1933 Rocket 3.7 22:46:48 43° SE 22:47:53 56° E 22:52:16 10° NNE
Cosmos 2219 Rocket 2.2 22:42:45 10° NNW 22:48:20 68° ENE 22:50:35 36° SE
NOSS 3-1 (A) 3.7 22:43:00 10° SW 22:48:50 71° NW 22:55:20 10° NNE
SL-08 R/B 4.4 22:44:56 22° S 22:49:08 88° E 22:55:27 10° N
Cosmos 1745 Rocket 3.9 22:47:13 26° S 22:50:53 78° E 22:57:04 10° N
Cosmos 1869 4.0 22:52:14 10° N 22:56:02 38° ENE 22:56:15 38° E
Cosmos 1726 3.2 22:53:15 10° NNW 22:56:49 41° W 22:58:06 30° SW
DMSP B5D2-2 4.0 22:54:38 10° NNE 22:59:49 63° ESE 23:01:25 42° SSE
CZ-4C R/B 2.9 22:59:54 68° SW 23:00:11 73° WSW 23:03:39 10° NNW
NOSS 0 Rocket 3.9 22:56:46 10° NNW 23:02:57 79° ENE 23:05:19 40° SE
ERBS 2.7 23:05:20 57° NE 23:05:20 57° NE 23:08:12 10° NE
USA 32 4.4 23:02:10 10° NNW 23:07:21 62° W 23:09:42 32° SSW
Landsat 7 3.9 23:05:56 44° S 23:07:24 72° WSW 23:12:10 10° NNW
Cosmos 1980 3.7 23:01:46 10° NNW 23:07:25 70° ENE 23:09:10 44° SE
Cosmos 292 Rocket 3.9 23:03:19 10° NNW 23:08:02 64° WSW 23:09:18 45° SSW
ATLAS 2AS CENTAUR R/B 2.9 23:05:37 20° SSW 23:11:02 69° ESE 23:19:00 10° NE
Cosmos 1271 Rocket 3.6 23:11:00 10° NNW 23:14:37 41° W 23:15:19 37° WSW
Spot 2 4.3 23:09:42 10° NNE 23:14:48 75° ESE 23:15:54 54° S
Cosmos 1386 Rocket 4.3 23:12:52 37° S 23:15:25 88° E 23:21:28 10° N
Cosmos 1346 4.1 23:17:15 45° NNW 23:17:15 45° NNW 23:19:38 10° N
Meteor 1-4 Rocket 4.0 23:15:56 10° NNW 23:19:15 31° W 23:19:51 29° WSW
Cosmos 2237 Rocket 2.1 23:14:17 10° NNW 23:20:00 81° ENE 23:21:31 51° SSE
Cosmos 2082 3.7 23:19:48 29° SSW 23:22:52 80° WNW 23:28:38 10° NNE
Terra 1.9 23:22:18 54° SSW 23:23:16 71° WSW 23:28:02 10° NNW
Spot 4 3.8 23:26:34 62° S 23:27:22 84° WSW 23:32:16 10° NNW
Cosmos 2181 Rocket 4.3 23:21:14 10° N 23:27:28 54° E 23:29:09 43° SE
ATLAS 3B R/B 3.2 23:21:40 10° NNW 23:28:28 50° NE 23:31:15 32° ESE
CARTOSAT-1 3.9 23:28:16 50° SW 23:28:48 54° W 23:33:03 10° NNW
Lacrosse 4 Rocket 2.7 23:25:13 10° N 23:29:13 32° ENE 23:29:44 31° ENE
Cosmos 1862 Rocket 3.6 23:25:01 10° NNW 23:29:19 66° W 23:29:43 62° SW
Cosmos 1626 3.0 23:35:44 43° W 23:35:55 43° W 23:39:32 10° N
OAO 2 Rocket 4.0 23:38:30 10° WSW 23:42:20 43° SW 23:42:20 43° SW
NOSS 2-3 (E) 4.3 23:46:41 48° E 23:46:41 48° E 23:51:12 10° NE
H-2A R/B 3.1 23:48:40 32° SW 23:50:05 37° W 23:55:06 10° NNW
Tiangong 1 3.8 23:48:40 10° WNW 23:49:20 15° WNW 23:49:20 15° WNW
COSMOS 2455 2.9 23:46:07 10° NNW 23:52:09 71° ENE 23:53:21 56° ESE
Cosmos 1269 Rocket 3.8 23:48:41 10° NNW 23:54:02 85° ENE 23:54:28 75° SE
Cosmos 1933 3.7 23:51:22 10° N 23:54:51 63° NNW 23:54:51 63° NNW
